Simultaneous Nadir Overpasses (SNOs) Predictions

Prediction of SNOs between GOES-16 and TERRA Satellite Orbit:

Table of predicted SNOs for the next 14.0 days since TLE Epoch: 10/26/2024
Index Date Time (GOES-16) GOES-16 Lat,Lon TERRA Lat,Lon Distance(km) Time Diff (sec)
1 10/28/2024 02:31:56 0.04, -75.20 0.46, -73.04 244.88 80
2 10/28/2024 14:51:42 -0.04, -75.24 0.52, -77.85 297.95 80
3 10/30/2024 14:30:59 -0.04, -75.26 -0.40, -73.51 199.13 80
4 10/31/2024 02:53:32 0.04, -75.24 -0.60, -78.34 352.42 80
5 11/02/2024 02:32:48 0.03, -75.27 0.32, -73.99 145.52 80
6 11/02/2024 14:55:12 -0.03, -75.30 0.70, -78.79 396.93 80
7 11/04/2024 14:34:28 -0.03, -75.33 -0.21, -74.43 101.56 80
8 11/05/2024 02:56:59 0.03, -75.31 -0.82, -79.26 449.63 80
9 11/07/2024 02:36:13 0.02, -75.34 0.09, -74.90 49.63 80
10 11/07/2024 14:58:38 -0.02, -75.37 0.92, -79.70 492.55 80
